| time (UTC) | temp F | wind direction | speed MPH | gust MPH | rain 1hr in | rain 24hr in | rain mn in | humidity % | barometer mb |
| 20260904111517 | 62 | 286 | 3.0 | 5.0 | 0.00 | 0.00 | 0.00 | 1 | 1011.0 |
| 20260904110003 | 62 | 246 | 2.0 | 8.0 | 0.00 | 0.00 | 0.00 | 1 | 1010.9 |
| 20260904104559 | 62 | 195 | 0.0 | 5.0 | 0.00 | 0.01 | 0.00 | 1 | 1010.9 |
| 20260904103054 | 62 | 265 | 1.0 | 7.0 | 0.00 | 0.01 | 0.00 | 1 | 1011.0 |
| 20260904101550 | 62 | 234 | 1.0 | 8.0 | 0.00 | 0.01 | 0.00 | 1 | 1010.8 |
| 20260904100049 | 62 | 257 | 3.0 | 8.0 | 0.00 | 0.01 | 0.00 | 1 | 1010.7 |
| 20260904094545 | 62 | 292 | 3.0 | 5.0 | 0.00 | 0.02 | 0.00 | 1 | 1010.7 |
| 20260904093036 | 62 | 246 | 3.0 | 7.0 | 0.00 | 0.02 | 0.00 | 1 | 1010.7 |
| 20260904091532 | 62 | 241 | 3.0 | 8.0 | 0.00 | 0.02 | 0.00 | 1 | 1010.8 |
| 20260904090029 | 62 | 184 | 1.0 | 5.0 | 0.00 | 0.02 | 0.00 | 1 | 1010.8 |
| 20260904084524 | 62 | 179 | 1.0 | 4.0 | 0.00 | 0.02 | 0.00 | 1 | 1010.9 |
| 20260904083032 | 62 | 201 | 2.0 | 5.0 | 0.00 | 0.02 | 0.00 | 1 | 1010.9 |
| 20260904081516 | 62 | 221 | 2.0 | 5.0 | 0.00 | 0.02 | 0.00 | 1 | 1011.0 |
| 20260904080013 | 62 | 194 | 3.0 | 7.0 | 0.00 | 0.02 | 0.00 | 1 | 1010.9 |
| 20260904074508 | 62 | 214 | 3.0 | 6.0 | 0.00 | 0.10 | 0.00 | 1 | 1010.9 |
| 20260904073004 | 62 | 273 | 5.0 | 8.0 | 0.00 | 0.10 | 0.00 | 1 | 1010.9 |
| 20260904071559 | 62 | 273 | 0.0 | 3.0 | 0.00 | 0.10 | 0.00 | 1 | 1011.1 |
| 20260904070059 | 63 | 272 | 1.0 | 4.0 | 0.00 | 0.10 | 0.00 | 1 | 1011.2 |
| 20260904064550 | 63 | 273 | 3.0 | 7.0 | 0.00 | 0.10 | 0.00 | 1 | 1011.3 |
| 20260904063043 | 63 | 272 | 4.0 | 8.0 | 0.00 | 0.10 | 0.00 | 1 | 1011.4 |
| 20260904061541 | 63 | 279 | 2.0 | 8.0 | 0.00 | 0.10 | 0.00 | 1 | 1011.6 |
| 20260904060035 | 63 | 303 | 3.0 | 8.0 | 0.00 | 0.10 | 0.00 | 1 | 1011.9 |
| 20260904054530 | 63 | 325 | 2.0 | 6.0 | 0.00 | 0.10 | 0.00 | 1 | 1012.1 |
| 20260904053025 | 63 | 59 | 1.0 | 4.0 | 0.00 | 0.10 | 0.00 | 1 | 1012.2 |
| 20260904051521 | 63 | 90 | 2.0 | 4.0 | 0.00 | 0.10 | 0.00 | 1 | 1012.4 |
| 20260904050016 | 63 | 99 | 2.0 | 3.0 | 0.00 | 0.10 | 0.00 | 1 | 1012.4 |
| 20260904044518 | 63 | 98 | 2.0 | 4.0 | 0.00 | 0.10 | 0.00 | 1 | 1012.5 |
| 20260904043007 | 63 | 95 | 0.0 | 2.0 | 0.00 | 0.10 | 0.00 | 1 | 1012.5 |
| 20260904041506 | 63 | 95 | 0.0 | 1.0 | 0.00 | 0.10 | 0.00 | 1 | 1012.6 |
| 20260904040106 | 63 | 95 | 0.0 | 2.0 | 0.00 | 0.10 | 0.00 | 1 | 1012.8 |
| 20260904034559 | 63 | 95 | 1.0 | 6.0 | 0.00 | 0.10 | 0.10 | 1 | 1012.8 |
| 20260904033059 | 63 | 174 | 1.0 | 3.0 | 0.00 | 0.10 | 0.10 | 1 | 1013.0 |
| 20260904031557 | 63 | 177 | 0.0 | 4.0 | 0.00 | 0.10 | 0.10 | 1 | 1013.2 |
| 20260904030058 | 63 | 150 | 2.0 | 5.0 | 0.00 | 0.10 | 0.10 | 1 | 1013.0 |
| 20260904024558 | 63 | 117 | 2.0 | 6.0 | 0.00 | 0.10 | 0.10 | 1 | 1013.1 |
| 20260904023101 | 63 | 124 | 3.0 | 6.0 | 0.00 | 0.10 | 0.10 | 1 | 1013.0 |
| 20260904021604 | 63 | 129 | 2.0 | 4.0 | 0.00 | 0.10 | 0.10 | 1 | 1013.3 |
| 20260904020100 | 63 | 130 | 2.0 | 5.0 | 0.00 | 0.10 | 0.10 | 1 | 1013.2 |
| 20260904014559 | 63 | 129 | 1.0 | 5.0 | 0.00 | 0.10 | 0.10 | 1 | 1013.6 |
| 20260904013048 | 63 | 105 | 3.0 | 7.0 | 0.00 | 0.10 | 0.10 | 1 | 1013.3 |
| 20260904011542 | 63 | 116 | 2.0 | 9.0 | 0.00 | 0.10 | 0.10 | 1 | 1013.3 |
| 20260904010042 | 63 | 128 | 6.0 | 9.0 | 0.00 | 0.10 | 0.10 | 1 | 1013.2 |
| 20260904004532 | 63 | 120 | 2.0 | 3.0 | 0.00 | 0.10 | 0.10 | 1 | 1013.2 |
| 20260904003031 | 63 | 120 | 0.0 | 6.0 | 0.00 | 0.10 | 0.10 | 1 | 1013.3 |
| 20260904001522 | 63 | 113 | 3.0 | 6.0 | 0.00 | 0.10 | 0.10 | 1 | 1012.9 |
| 20260904000018 | 63 | 109 | 0.0 | 3.0 | 0.00 | 0.10 | 0.10 | 1 | 1012.9 |
| 20260903234516 | 63 | 109 | 2.0 | 8.0 | 0.00 | 0.10 | 0.10 | 1 | 1012.7 |
| 20260903233008 | 63 | 140 | 4.0 | 7.0 | 0.00 | 0.10 | 0.10 | 1 | 1012.2 |
| 20260903231509 | 63 | 114 | 3.0 | 7.0 | 0.00 | 0.10 | 0.10 | 1 | 1012.7 |
| 20260903224613 | 65 | 9 | 1.0 | 3.0 | 0.00 | 0.10 | 0.10 | 1 | 1013.0 |
| 20260903223051 | 65 | 5 | 1.0 | 4.0 | 0.00 | 0.10 | 0.10 | 1 | 1013.2 |
| 20260903221547 | 65 | 59 | 0.0 | 4.0 | 0.00 | 0.10 | 0.10 | 1 | 1013.0 |
| 20260903220046 | 64 | 59 | 0.0 | 3.0 | 0.00 | 0.10 | 0.10 | 1 | 1013.2 |
| 20260903214541 | 65 | 59 | 0.0 | 3.0 | 0.00 | 0.10 | 0.10 | 1 | 1013.2 |
| 20260903213037 | 65 | 59 | 1.0 | 3.0 | 0.00 | 0.10 | 0.10 | 1 | 1013.2 |
| 20260903211535 | 65 | 325 | 2.0 | 3.0 | 0.00 | 0.10 | 0.10 | 1 | 1013.2 |
| 20260903210025 | 65 | 321 | 0.0 | 4.0 | 0.00 | 0.10 | 0.10 | 1 | 1013.3 |
| 20260903204521 | 66 | 317 | 1.0 | 4.0 | 0.00 | 0.10 | 0.10 | 1 | 1013.5 |
| 20260903203016 | 66 | 319 | 1.0 | 4.0 | 0.00 | 0.10 | 0.10 | 1 | 1013.4 |
| 20260903201512 | 66 | 313 | 1.0 | 4.0 | 0.00 | 0.10 | 0.10 | 1 | 1013.6 |
| 20260903200008 | 65 | 54 | 0.0 | 2.0 | 0.00 | 0.10 | 0.10 | 1 | 1013.4 |
| 20260903194503 | 64 | 52 | 1.0 | 3.0 | 0.00 | 0.10 | 0.10 | 1 | 1013.6 |
| 20260903193058 | 64 | 46 | 0.0 | 3.0 | 0.00 | 0.10 | 0.10 | 1 | 1013.8 |
| 20260903191553 | 65 | 44 | 0.0 | 3.0 | 0.00 | 0.10 | 0.10 | 1 | 1014.0 |
| 20260903190050 | 63 | 44 | 0.0 | 4.0 | 0.00 | 0.10 | 0.10 | 1 | 1014.1 |
| 20260903184546 | 63 | 42 | 1.0 | 3.0 | 0.00 | 0.10 | 0.10 | 1 | 1014.1 |
| 20260903183046 | 63 | 42 | 1.0 | 3.0 | 0.00 | 0.10 | 0.10 | 1 | 1014.3 |
| 20260903181537 | 63 | 41 | 2.0 | 5.0 | 0.00 | 0.10 | 0.10 | 1 | 1014.4 |
| 20260903180039 | 63 | 42 | 0.0 | 6.0 | 0.00 | 0.10 | 0.10 | 1 | 1014.6 |
| 20260903174531 | 63 | 42 | 0.0 | 2.0 | 0.00 | 0.10 | 0.10 | 1 | 1014.4 |
| 20260903173024 | 62 | 41 | 1.0 | 4.0 | 0.00 | 0.10 | 0.10 | 1 | 1014.5 |
| 20260903171520 | 62 | 90 | 0.0 | 2.0 | 0.00 | 0.10 | 0.10 | 1 | 1014.5 |
| 20260903170015 | 62 | 90 | 1.0 | 3.0 | 0.00 | 0.10 | 0.10 | 1 | 1014.6 |
| 20260903164510 | 61 | 98 | 2.0 | 4.0 | 0.00 | 0.10 | 0.10 | 1 | 1014.4 |
| 20260903163006 | 61 | 54 | 0.0 | 3.0 | 0.00 | 0.10 | 0.10 | 1 | 1014.5 |
| 20260903161502 | 60 | 61 | 3.0 | 5.0 | 0.00 | 0.10 | 0.10 | 1 | 1014.7 |
| 20260903160126 | 60 | 16 | 1.0 | 4.0 | 0.00 | 0.10 | 0.10 | 1 | 1015.0 |
| 20260903154606 | 60 | 15 | 1.0 | 3.0 | 0.00 | 0.10 | 0.10 | 1 | 1015.1 |
| 20260903153051 | 59 | 15 | 1.0 | 4.0 | 0.00 | 0.10 | 0.10 | 1 | 1015.3 |
| 20260903151544 | 59 | 342 | 1.0 | 4.0 | 0.00 | 0.10 | 0.10 | 1 | 1015.5 |
| 20260903150039 | 59 | 336 | 1.0 | 3.0 | 0.00 | 0.10 | 0.10 | 1 | 1015.6 |
| 20260903144536 | 59 | 188 | 1.0 | 3.0 | 0.00 | 0.10 | 0.10 | 1 | 1015.8 |
| 20260903143036 | 59 | 153 | 0.0 | 3.0 | 0.00 | 0.10 | 0.10 | 1 | 1015.7 |
| 20260903141527 | 59 | 151 | 1.0 | 3.0 | 0.00 | 0.10 | 0.10 | 1 | 1015.8 |
| 20260903140023 | 58 | 151 | 0.0 | 2.0 | 0.00 | 0.10 | 0.10 | 1 | 1015.8 |
| 20260903134518 | 58 | 151 | 0.0 | 3.0 | 0.00 | 0.10 | 0.10 | 1 | 1015.8 |
| 20260903133018 | 58 | 147 | 0.0 | 1.0 | 0.00 | 0.10 | 0.10 | 1 | 1015.8 |
| 20260903131510 | 57 | 148 | 0.0 | 3.0 | 0.00 | 0.10 | 0.10 | 1 | 1015.8 |
| 20260903130005 | 57 | 148 | 2.0 | 5.0 | 0.00 | 0.10 | 0.10 | 1 | 1015.8 |
| 20260903124605 | 57 | 150 | 1.0 | 3.0 | 0.00 | 0.10 | 0.10 | 1 | 1016.1 |
| 20260903123056 | 57 | 151 | 1.0 | 5.0 | 0.00 | 0.10 | 0.10 | 1 | 1016.3 |
| 20260903121552 | 57 | 151 | 1.0 | 5.0 | 0.00 | 0.10 | 0.10 | 1 | 1016.4 |
| 20260903120048 | 57 | 156 | 2.0 | 6.0 | 0.00 | 0.10 | 0.10 | 1 | 1016.4 |
| 20260903114546 | 57 | 164 | 0.0 | 5.0 | 0.00 | 0.10 | 0.10 | 1 | 1016.3 |
| 20260903113039 | 56 | 119 | 0.0 | 1.0 | 0.00 | 0.10 | 0.10 | 1 | 1016.4 |